Regional Weather Roundup
Issued by NWS

Home | Current Version | Previous Version | Graphics & Text | Print | Product List | Glossary On
Versions: 1 2 3 4 5 6 7 8 9 10 11 12 13 14 15 16 17 18 19 20 21 22 23 24 25 26 27 28 29 30 31 32 33 34 35 36 37 38 39 40 41 42 43 44 45 46 47 48 49 50
000
ASUS43 KMKX 260200
RWRWI

WISCONSIN REGIONAL WEATHER ROUNDUP
NATIONAL WEATHER SERVICE MILWAUKEE/SULLIVAN WI
900 PM CDT SUN SEP 25 2016

NOTE: "FAIR" INDICATES FEW OR NO CLOUDS BELOW 12,000 FEET WITH NO
SIGNIFICANT WEATHER AND/OR OBSTRUCTIONS TO VISIBILITY.

WIZ001-002-006>008-014>016-023>028-260300-
NORTHWEST WISCONSIN

CITY           SKY/WX    TMP DP  RH WIND       PRES   REMARKS
SUPERIOR ARPT  CLOUDY    57  51  79 W13G24    29.81R
ASHLAND        CLOUDY    59  53  80 SW13G22   29.81S
HAYWARD        LGT RAIN  56  53  90 VRB7      29.87R
SIREN          CLOUDY    56  49  76 W20G25    29.90R
CUMBERLAND     CLOUDY    54  52  94 W10G22    29.91R
RICE LAKE      CLOUDY    56  52  88 W12G20    29.92R
CHETEK         NOT AVBL
LADYSMITH      CLOUDY    57  55  92 SW6       29.90S
EAU CLAIRE     NOT AVBL
MENOMONIE      CLOUDY    57  56  98 SW10      29.94R
NEW RICHMOND   MOCLDY    55  50  82 W10G16    29.95R
OSCEOLA        PTCLDY    57  48  72 W12G20    29.97R
$$

WIZ003>005-009-010-017-018-260300-
NORTH CENTRAL WISCONSIN

CITY           SKY/WX    TMP DP  RH WIND       PRES   REMARKS
MANITOWISH WTR NOT AVBL
ARBOR VITAE    CLOUDY    59  54  81 SW6       29.85S
WOODRUFF       CLOUDY    59  54  81 SW6       29.85S
RHINELANDER    MOCLDY    59  54  83 W10       29.87R
EAGLE RIVER    CLOUDY    59  55  86 W7        29.84S
LAND O LAKES   MOCLDY    60  54  81 W3        29.85S
PHILLIPS       CLOUDY    58  53  82 SW9       29.86R
TOMAHAWK       MOCLDY    58  52  79 SW5       29.88R
MEDFORD        CLOUDY    58  55  88 SW7       29.89R
MERRILL        PTCLDY    59  54  82 W7        29.89R
$$

WIZ029-030-035-036-043>047-260300-
CENTRAL WISCONSIN

CITY           SKY/WX    TMP DP  RH WIND       PRES   REMARKS
WAUSAU         MOCLDY    60  51  72 W9        29.88R
MOSINEE        PTCLDY    59  55  88 W12       29.91R
MARSHFIELD     LGT RAIN  59  53  80 W22G31    29.92R
STEVENS POINT  CLOUDY    61  54  78 SW9       29.91R
WAUPACA        CLOUDY    66  56  70 SW9       29.90R
WAUTOMA        CLOUDY    64  55  72 W9        29.92R
WISC RAPIDS    CLOUDY    62  55  77 W8        29.93R
CAMP DOUGLAS   NOT AVBL
$$

WIZ011>013-019>022-031-037>040-048>050-260300-
NORTHEAST WISCONSIN

CITY           SKY/WX    TMP DP  RH WIND       PRES   REMARKS
ANTIGO         CLOUDY    59  55  86 W10       29.88R
SHAWANO        CLOUDY    65  59  79 W7        29.87R
OCONTO         NOT AVBL
STURGEON BAY   LGT RAIN  66  65  96 S9        29.84S
GREEN BAY      LGT RAIN  66  65  96 W12       29.87R
MANITOWOC      LGT RAIN  68  66  94 MISG      29.86S
APPLETON       CLOUDY    64  57  77 W17       29.88R
CLINTONVILLE   NOT AVBL
OSHKOSH        CLOUDY    66  59  78 W9        29.89R
$$

WIZ032>034-041-042-053>061-260300-
SOUTHWEST WISCONSIN

CITY           SKY/WX    TMP DP  RH WIND       PRES   REMARKS
LA CROSSE      CLOUDY    63  53  70 W16       29.97R
SPARTA         RAIN      59  55  85 W10G21    29.97R
VIROQUA        CLOUDY    60  53  77 W9        29.98R
BOSCOBEL       CLOUDY    65  52  62 W9        29.99R
PRAIRIE DU CHI CLOUDY    63  50  63 W10G20    30.00R
PLATTEVILLE    CLOUDY    63  54  73 W9        30.00R
$$

WIZ056-057-062-063-064-067-068-260300-
SOUTH CENTRAL WISCONSIN

CITY           SKY/WX    TMP DP  RH WIND       PRES   REMARKS
REEDSBURG      NOT AVBL
BARABOO/DELLS  CLOUDY    63  51  66 W9        29.95R
LONE ROCK      NOT AVBL
MINERAL POINT  CLOUDY    63  54  72 W7        29.99R
MADISON        CLOUDY    65  53  65 VRB5      29.96R
MIDDLETON      CLOUDY    65  55  69 W6G16     29.97R
WATERTOWN      CLOUDY    67  60  78 W13G18    29.93R
MONROE         CLOUDY    63  52  67 W14       29.99R
JANESVILLE     NOT AVBL
$$

WIZ051-052-058>065-066-070>072-260300-
SOUTHEAST WISCONSIN

CITY           SKY/WX    TMP DP  RH WIND       PRES   REMARKS
MILWAUKEE      LGT RAIN  73  70  90 W7        29.88S FOG
WAUKESHA       CLOUDY    68  64  88 W14       29.92R
MILWAUKEE/TIMM MOCLDY    70  66  88 SW3       29.89R
RACINE         LGT RAIN  71  69  93 W3        29.90S
BURLINGTON     CLOUDY    69  63  80 W14G22    29.92R
KENOSHA        CLOUDY    72  69  90 W14G20    29.91R
FOND DU LAC    CLOUDY    67  58  72 W10       29.90R
SHEBOYGAN      LGT RAIN  68  66  93 W5        29.87S
WEST BEND      DRIZZLE   70  64  83 W9G17     29.89R
JUNEAU         CLOUDY    67  58  73 W8        29.93R
$$

LSZ147-162-260300-
LAKE SUPERIOR

STATION/POSITION TIME  TEMP    WIND        PRES    WAVE
                       AIR SEA DIR/SP/G            HT/PER
                 (UTC) (F)     (DEG/KT/KT) (MB)    (FT/S)
W MID LAKE BUOY  0050   63 61  240/ 21/ 27 1006.6R   4/ 5
DEVILS ISLAND    0100   60     210/ 10/ 14 1008.0F
SAXON HARBOR     0140   62     250/  4/  9 1009.1S
$$

LMZ867-665-643>646-260300-
LAKE MICHIGAN

STATION/POSITION TIME  TEMP    WIND        PRES    WAVE
                       AIR SEA DIR/SP/G            HT/PER
                 (UTC) (F)     (DEG/KT/KT) (MB)    (FT/S)
CHAMBERS ISLAND  0100   67     160/  6/ 12 1009.5F
N MID LAKE BUOY  0050   66 67  170/ 12/ 14 1010.6R   4/ 5
NORTHPORT PIER   0100   67     160/  7/ 12 1010.5S
KEWAUNEE LAKESHO 0100   67     200/ 10/ 12 1010.4F
SHEBOYGAN LAKESH 0100   70     190/ 11/ 11 1010.8F
PORT WASHINGTON  0100   68      CALM  /  2 1012.2F
ATWATER BUOY     0100   63 54  190/  4/  6 1011.6S
MILWAUKEE LAKESH 0110   69     230/  8/ 10   N/A
S MID LAKE BUOY  0050   71 72  170/ 10/ 12 1011.8F   2/ 3
KENOSHA   LAKESH 0100   70     240/  3/  4 1011.9R
$$

TC  - TEMPERATURE IN CELSIUS
VSB - VISIBILITY IN STATUTE MILES
WCI - WIND CHILL INDEX
HX  - HEAT INDEX





USA.gov is the U.S. government's official web portal to all federal, state and local government web resources and services.